Regional Weather Roundup
Issued by NWS

Home | Current Version | Previous Version | Text Only | Print | Product List | Glossary Off
Versions: 1 2 3 4 5 6 7 8 9 10 11 12 13 14 15 16 17 18 19 20 21 22 23 24 25 26 27 28 29 30 31 32 33 34 35 36 37 38 39 40 41 42 43 44 45 46 47 48 49 50

000
ASUS45 KBOI 301810
RWRID
WEATHER ROUNDUP FOR IDAHO
NATIONAL WEATHER SERVICE BOISE ID
1100 AM MST FRI JAN 30 2015

NOTE: "FAIR" INDICATES FEW OR NO CLOUDS BELOW 12000 FEET
WITH NO SIGNIFICANT WEATHER AND/OR OBSTRUCTIONS TO VISIBILITY

IDZ012-014-301900-
SOUTHWEST IDAHO


CITY           SKY/WX    TMP DP  RH WIND       PRES   REMARKS
BOISE          FOG       31  31 100 CALM      30.29S VSB<1/4
CALDWELL       PTSUNNY   37  28  70 NW6       30.32S WCI  33
MOUNTAIN HOME  SUNNY     38  32  81 NW10      30.26F WCI  30
$$

IDZ016-017-301900-
SOUTHCENTRAL IDAHO


CITY           SKY/WX    TMP DP  RH WIND       PRES   REMARKS
BURLEY         CLOUDY    37  26  64 CALM      30.22R
JEROME         CLOUDY    33  31  92 SW3       30.24S
TWIN FALLS     CLOUDY    36  32  85 NW3       30.23F
$$

IDZ019>023-301900-
SOUTHEAST IDAHO


CITY           SKY/WX    TMP DP  RH WIND       PRES   REMARKS
IDAHO FALLS    PTSUNNY   33  26  75 N9        30.20S WCI  25
POCATELLO      MOSUNNY   33  30  88 CALM      30.21S
REXBURG        PTSUNNY   28  21  75 NE7       30.21S WCI  21
$$

IDZ006-010-011-018-031-032-301900-
CENTRAL IDAHO MOUNTAINS


CITY           SKY/WX    TMP DP  RH WIND       PRES   REMARKS
MCCALL         HAZE      24  17  74 S3        30.22S VSB 1/4
HAILEY         MOSUNNY   30  19  64 NW12      30.22F WCI  21
STANLEY          N/A     13   8  81 E6        30.28F WCI   4
SALMON         CLOUDY    27  21  80 CALM      30.37R
CHALLIS        CLOUDY    26  20  77 NW6       30.32S WCI  19
$$

IDZ002-004-006-007-026-301900-
NORTHERN IDAHO


CITY           SKY/WX    TMP DP  RH WIND       PRES   REMARKS
LEWISTON       CLOUDY    37  35  92 CALM      30.40R
LOWELL           N/A     36  30  79 CALM      30.41F
COEUR D`ALENE  CLOUDY    30  28  93 NE8       30.37R WCI  23
MULLAN PASS    SUNNY     34  11  38 CALM      30.24S
$$



USA.gov is the U.S. government's official web portal to all federal, state and local government web resources and services.